| time (UTC) | temp C | wind direction | speed KPH | gust KPH | rain 1hr cm | rain 24hr cm | rain mn cm | humidity % | barometer mb |
| 20260506183010 | 18 | 220 | 9.7 | 27.4 | 0.00 | 0.00 | 0.00 | 74 | 1008.2 |
| 20260506182509 | 19 | 221 | 8.0 | 27.4 | 0.00 | 0.00 | 0.00 | 72 | 1008.2 |
| 20260506182010 | 19 | 221 | 8.0 | 25.7 | 0.00 | 0.00 | 0.00 | 72 | 1008.1 |
| 20260506181510 | 19 | 221 | 9.7 | 25.7 | 0.00 | 0.00 | 0.00 | 72 | 1008.2 |
| 20260506181009 | 19 | 218 | 9.7 | 25.7 | 0.00 | 0.00 | 0.00 | 72 | 1008.1 |
| 20260506180510 | 18 | 215 | 9.7 | 22.5 | 0.00 | 0.00 | 0.00 | 72 | 1008.1 |
| 20260506180009 | 18 | 221 | 9.7 | 22.5 | 0.00 | 0.00 | 0.00 | 73 | 1008.1 |
| 20260506175510 | 18 | 218 | 6.4 | 17.7 | 0.00 | 0.00 | 0.00 | 74 | 1008.1 |
| 20260506175009 | 18 | 217 | 8.0 | 17.7 | 0.00 | 0.00 | 0.00 | 73 | 1008.3 |
| 20260506174509 | 18 | 214 | 9.7 | 27.4 | 0.00 | 0.00 | 0.00 | 73 | 1008.4 |
| 20260506174010 | 19 | 216 | 8.0 | 29.0 | 0.00 | 0.00 | 0.00 | 72 | 1008.4 |
| 20260506173509 | 19 | 219 | 8.0 | 29.0 | 0.00 | 0.00 | 0.00 | 72 | 1008.4 |
| 20260506173010 | 19 | 220 | 8.0 | 17.7 | 0.00 | 0.00 | 0.00 | 71 | 1008.4 |
| 20260506172509 | 19 | 220 | 8.0 | 22.5 | 0.00 | 0.00 | 0.00 | 72 | 1008.5 |
| 20260506172010 | 19 | 222 | 8.0 | 22.5 | 0.00 | 0.00 | 0.00 | 72 | 1008.4 |
| 20260506171509 | 19 | 229 | 9.7 | 24.1 | 0.00 | 0.00 | 0.00 | 73 | 1008.5 |
| 20260506171010 | 20 | 226 | 9.7 | 24.1 | 0.00 | 0.00 | 0.00 | 71 | 1008.4 |
| 20260506170009 | 20 | 216 | 8.0 | 25.7 | 0.00 | 0.00 | 0.00 | 73 | 1008.5 |
| 20260506165009 | 20 | 222 | 8.0 | 17.7 | 0.00 | 0.00 | 0.00 | 74 | 1008.6 |
| 20260506164510 | 20 | 220 | 8.0 | 19.3 | 0.00 | 0.00 | 0.00 | 74 | 1008.7 |
| 20260506164009 | 20 | 220 | 8.0 | 19.3 | 0.00 | 0.00 | 0.00 | 71 | 1008.7 |
| 20260506163510 | 20 | 213 | 6.4 | 17.7 | 0.00 | 0.00 | 0.00 | 71 | 1008.8 |
| 20260506163009 | 20 | 207 | 6.4 | 17.7 | 0.00 | 0.00 | 0.00 | 71 | 1009.1 |
| 20260506162510 | 20 | 208 | 6.4 | 16.1 | 0.00 | 0.00 | 0.00 | 71 | 1009.3 |
| 20260506162009 | 20 | 213 | 6.4 | 24.1 | 0.00 | 0.00 | 0.00 | 70 | 1009.4 |
| 20260506161510 | 20 | 216 | 6.4 | 24.1 | 0.00 | 0.00 | 0.00 | 69 | 1009.6 |
| 20260506161009 | 20 | 220 | 4.8 | 19.3 | 0.00 | 0.00 | 0.00 | 69 | 1009.7 |
| 20260506160510 | 20 | 220 | 4.8 | 17.7 | 0.00 | 0.00 | 0.00 | 69 | 1009.7 |
| 20260506160010 | 20 | 220 | 6.4 | 17.7 | 0.00 | 0.00 | 0.00 | 68 | 1009.8 |
| 20260506155509 | 20 | 221 | 6.4 | 17.7 | 0.00 | 0.00 | 0.00 | 67 | 1009.8 |
| 20260506155009 | 20 | 215 | 6.4 | 24.1 | 0.00 | 0.00 | 0.00 | 66 | 1009.8 |
| 20260506154509 | 20 | 216 | 8.0 | 24.1 | 0.00 | 0.00 | 0.00 | 65 | 1009.7 |
| 20260506154009 | 20 | 218 | 8.0 | 19.3 | 0.00 | 0.00 | 0.00 | 64 | 1009.6 |
| 20260506153509 | 20 | 218 | 8.0 | 19.3 | 0.00 | 0.00 | 0.00 | 63 | 1009.6 |
| 20260506153009 | 20 | 218 | 8.0 | 25.7 | 0.00 | 0.00 | 0.00 | 62 | 1009.8 |
| 20260506152510 | 20 | 217 | 8.0 | 25.7 | 0.00 | 0.00 | 0.00 | 61 | 1009.8 |
| 20260506151010 | 21 | 218 | 6.4 | 17.7 | 0.00 | 0.00 | 0.00 | 60 | 1009.6 |
| 20260506150509 | 21 | 221 | 9.7 | 20.9 | 0.00 | 0.00 | 0.00 | 61 | 1009.8 |
| 20260506150010 | 21 | 221 | 11.3 | 22.5 | 0.00 | 0.00 | 0.00 | 61 | 1009.7 |
| 20260506145009 | 20 | 222 | 8.0 | 29.0 | 0.00 | 0.00 | 0.00 | 61 | 1009.8 |
| 20260506144510 | 20 | 222 | 11.3 | 32.2 | 0.00 | 0.00 | 0.00 | 61 | 1009.9 |
| 20260506144009 | 20 | 220 | 8.0 | 32.2 | 0.00 | 0.00 | 0.00 | 60 | 1009.9 |
| 20260506143509 | 20 | 219 | 8.0 | 22.5 | 0.00 | 0.00 | 0.00 | 60 | 1009.9 |
| 20260506143009 | 20 | 217 | 11.3 | 30.6 | 0.00 | 0.00 | 0.00 | 60 | 1009.8 |
| 20260506142509 | 21 | 219 | 11.3 | 30.6 | 0.00 | 0.00 | 0.00 | 59 | 1009.8 |
| 20260506142010 | 21 | 223 | 9.7 | 22.5 | 0.00 | 0.00 | 0.00 | 60 | 1009.8 |
| 20260506141509 | 21 | 220 | 9.7 | 22.5 | 0.00 | 0.00 | 0.00 | 60 | 1009.7 |
| 20260506141010 | 21 | 223 | 9.7 | 43.5 | 0.00 | 0.00 | 0.00 | 60 | 1009.8 |
| 20260506140509 | 21 | 227 | 9.7 | 43.5 | 0.00 | 0.00 | 0.00 | 61 | 1009.7 |
| 20260506140010 | 20 | 226 | 8.0 | 24.1 | 0.00 | 0.00 | 0.00 | 61 | 1009.6 |
| 20260506135510 | 20 | 225 | 9.7 | 29.0 | 0.00 | 0.00 | 0.00 | 61 | 1009.6 |
| 20260506135009 | 20 | 226 | 9.7 | 29.0 | 0.00 | 0.00 | 0.00 | 61 | 1009.6 |
| 20260506134509 | 20 | 220 | 9.7 | 33.8 | 0.00 | 0.00 | 0.00 | 60 | 1009.6 |
| 20260506134010 | 20 | 218 | 9.7 | 33.8 | 0.00 | 0.00 | 0.00 | 60 | 1009.6 |
| 20260506133010 | 21 | 227 | 8.0 | 30.6 | 0.00 | 0.00 | 0.00 | 60 | 1009.6 |
| 20260506132509 | 21 | 225 | 9.7 | 30.6 | 0.00 | 0.00 | 0.00 | 60 | 1009.6 |
| 20260506132010 | 21 | 222 | 9.7 | 24.1 | 0.00 | 0.00 | 0.00 | 61 | 1009.7 |
| 20260506131510 | 21 | 221 | 8.0 | 33.8 | 0.00 | 0.00 | 0.00 | 60 | 1009.8 |
| 20260506130509 | 21 | 217 | 11.3 | 35.4 | 0.00 | 0.00 | 0.00 | 61 | 1009.9 |
| 20260506130010 | 21 | 219 | 8.0 | 35.4 | 0.00 | 0.00 | 0.00 | 61 | 1009.7 |
| 20260506125509 | 21 | 221 | 6.4 | 20.9 | 0.00 | 0.00 | 0.00 | 64 | 1010.0 |
| 20260506125010 | 20 | 220 | 6.4 | 17.7 | 0.00 | 0.00 | 0.00 | 64 | 1010.0 |
| 20260506124509 | 20 | 221 | 8.0 | 24.1 | 0.00 | 0.00 | 0.00 | 65 | 1010.0 |
| 20260506124010 | 20 | 218 | 9.7 | 24.1 | 0.00 | 0.00 | 0.00 | 64 | 1009.9 |
| 20260506123509 | 20 | 218 | 8.0 | 19.3 | 0.00 | 0.00 | 0.00 | 65 | 1009.9 |
| 20260506123010 | 20 | 214 | 6.4 | 19.3 | 0.00 | 0.00 | 0.00 | 66 | 1009.9 |
| 20260506122509 | 19 | 216 | 6.4 | 17.7 | 0.00 | 0.00 | 0.00 | 67 | 1009.9 |
| 20260506122010 | 19 | 219 | 4.8 | 17.7 | 0.00 | 0.00 | 0.00 | 68 | 1010.0 |
| 20260506121510 | 18 | 218 | 4.8 | 14.5 | 0.00 | 0.00 | 0.00 | 69 | 1010.1 |
| 20260506120510 | 18 | 210 | 8.0 | 17.7 | 0.00 | 0.00 | 0.00 | 70 | 1010.0 |
| 20260506120010 | 18 | 212 | 8.0 | 20.9 | 0.00 | 0.00 | 0.00 | 70 | 1010.1 |
| 20260506115509 | 18 | 204 | 6.4 | 20.9 | 0.00 | 0.00 | 0.00 | 70 | 1010.0 |
| 20260506115009 | 18 | 200 | 8.0 | 17.7 | 0.00 | 0.00 | 0.00 | 70 | 1010.2 |
| 20260506114509 | 18 | 212 | 6.4 | 22.5 | 0.00 | 0.00 | 0.00 | 70 | 1010.2 |
| 20260506114009 | 18 | 212 | 8.0 | 22.5 | 0.00 | 0.00 | 0.00 | 70 | 1010.2 |
| 20260506113510 | 18 | 214 | 9.7 | 19.3 | 0.00 | 0.00 | 0.00 | 70 | 1010.3 |
| 20260506113009 | 18 | 224 | 8.0 | 22.5 | 0.00 | 0.00 | 0.00 | 70 | 1010.2 |
| 20260506112509 | 18 | 222 | 6.4 | 22.5 | 0.00 | 0.00 | 0.00 | 71 | 1010.2 |
| 20260506112010 | 18 | 213 | 6.4 | 19.3 | 0.00 | 0.00 | 0.00 | 71 | 1010.2 |
| 20260506111509 | 18 | 214 | 6.4 | 17.7 | 0.00 | 0.00 | 0.00 | 71 | 1010.2 |
| 20260506111009 | 17 | 211 | 4.8 | 20.9 | 0.00 | 0.00 | 0.00 | 72 | 1010.3 |
| 20260506110509 | 17 | 208 | 4.8 | 20.9 | 0.00 | 0.00 | 0.00 | 73 | 1010.2 |
| 20260506110009 | 17 | 214 | 6.4 | 14.5 | 0.00 | 0.00 | 0.00 | 73 | 1010.1 |
| 20260506105510 | 17 | 213 | 6.4 | 16.1 | 0.00 | 0.00 | 0.00 | 73 | 1010.2 |
| 20260506104509 | 17 | 213 | 4.8 | 16.1 | 0.00 | 0.00 | 0.00 | 74 | 1010.0 |
| 20260506104009 | 17 | 214 | 6.4 | 17.7 | 0.00 | 0.00 | 0.00 | 75 | 1010.0 |
| 20260506103509 | 17 | 216 | 4.8 | 17.7 | 0.00 | 0.00 | 0.00 | 75 | 1010.1 |
| 20260506103009 | 17 | 208 | 4.8 | 16.1 | 0.00 | 0.00 | 0.00 | 76 | 1010.2 |
| 20260506102509 | 16 | 209 | 4.8 | 14.5 | 0.00 | 0.00 | 0.00 | 76 | 1010.1 |
| 20260506102010 | 16 | 219 | 4.8 | 16.1 | 0.00 | 0.00 | 0.00 | 76 | 1010.2 |
| 20260506101509 | 16 | 216 | 4.8 | 16.1 | 0.00 | 0.00 | 0.00 | 76 | 1010.2 |
| 20260506101010 | 16 | 207 | 4.8 | 14.5 | 0.00 | 0.00 | 0.00 | 76 | 1010.2 |
| 20260506100509 | 16 | 200 | 4.8 | 14.5 | 0.00 | 0.00 | 0.00 | 77 | 1010.1 |
| 20260506095510 | 17 | 206 | 4.8 | 16.1 | 0.00 | 0.00 | 0.00 | 77 | 1010.0 |
| 20260506095009 | 17 | 209 | 4.8 | 16.1 | 0.00 | 0.00 | 0.00 | 77 | 1010.0 |
| 20260506094509 | 17 | 226 | 4.8 | 16.1 | 0.00 | 0.00 | 0.00 | 76 | 1009.9 |
| 20260506094009 | 17 | 220 | 6.4 | 16.1 | 0.00 | 0.00 | 0.00 | 76 | 1009.9 |
| 20260506093509 | 17 | 211 | 4.8 | 12.9 | 0.00 | 0.00 | 0.00 | 76 | 1009.9 |
| 20260506093009 | 17 | 214 | 4.8 | 12.9 | 0.00 | 0.00 | 0.00 | 76 | 1009.8 |
| 20260506092509 | 17 | 213 | 4.8 | 16.1 | 0.00 | 0.00 | 0.00 | 76 | 1009.9 |
| 20260506092010 | 17 | 201 | 4.8 | 16.1 | 0.00 | 0.00 | 0.00 | 76 | 1009.9 |
| 20260506091509 | 17 | 203 | 4.8 | 16.1 | 0.00 | 0.00 | 0.00 | 76 | 1010.0 |
| 20260506091009 | 17 | 216 | 4.8 | 16.1 | 0.00 | 0.00 | 0.00 | 76 | 1010.0 |
| 20260506090509 | 17 | 214 | 4.8 | 12.9 | 0.00 | 0.00 | 0.00 | 76 | 1010.1 |
| 20260506085510 | 17 | 214 | 4.8 | 14.5 | 0.00 | 0.00 | 0.00 | 76 | 1010.2 |
| 20260506085009 | 17 | 210 | 4.8 | 12.9 | 0.00 | 0.00 | 0.00 | 76 | 1010.2 |
| 20260506084510 | 17 | 208 | 4.8 | 14.5 | 0.00 | 0.00 | 0.00 | 77 | 1010.2 |
| 20260506084009 | 17 | 214 | 4.8 | 14.5 | 0.00 | 0.00 | 0.00 | 77 | 1010.3 |
| 20260506083010 | 17 | 203 | 4.8 | 12.9 | 0.00 | 0.00 | 0.00 | 77 | 1010.3 |
| 20260506082509 | 17 | 208 | 3.2 | 12.9 | 0.00 | 0.00 | 0.00 | 77 | 1010.4 |
| 20260506082009 | 17 | 217 | 3.2 | 11.3 | 0.00 | 0.00 | 0.00 | 77 | 1010.4 |
| 20260506080509 | 17 | 226 | 4.8 | 14.5 | 0.00 | 0.00 | 0.00 | 76 | 1010.3 |
| 20260506073509 | 17 | 228 | 3.2 | 8.0 | 0.00 | 0.00 | 0.00 | 76 | 1010.1 |
| 20260506073010 | 17 | 214 | 3.2 | 12.9 | 0.00 | 0.00 | 0.00 | 76 | 1010.3 |
| 20260506072009 | 17 | 199 | 4.8 | 14.5 | 0.00 | 0.00 | 0.00 | 75 | 1010.3 |
| 20260506071510 | 17 | 199 | 4.8 | 14.5 | 0.00 | 0.00 | 0.00 | 75 | 1010.4 |
| 20260506071009 | 17 | 209 | 3.2 | 12.9 | 0.00 | 0.00 | 0.00 | 75 | 1010.5 |
| 20260506070509 | 17 | 200 | 3.2 | 12.9 | 0.00 | 0.00 | 0.00 | 75 | 1010.5 |
| 20260506062509 | 18 | 216 | 4.8 | 14.5 | 0.00 | 0.00 | 0.00 | 73 | 1010.4 |
| 20260506062009 | 18 | 200 | 4.8 | 12.9 | 0.00 | 0.00 | 0.00 | 72 | 1010.5 |
| 20260506061509 | 18 | 207 | 4.8 | 12.9 | 0.00 | 0.00 | 0.00 | 72 | 1010.4 |
| 20260506061009 | 18 | 220 | 6.4 | 19.3 | 0.00 | 0.00 | 0.00 | 72 | 1010.5 |
| 20260506060509 | 18 | 211 | 6.4 | 19.3 | 0.00 | 0.00 | 0.00 | 71 | 1010.5 |
| 20260506051009 | 19 | 218 | 8.0 | 19.3 | 0.00 | 0.00 | 0.00 | 69 | 1010.8 |
| 20260506050509 | 19 | 215 | 6.4 | 19.3 | 0.00 | 0.00 | 0.00 | 69 | 1010.7 |
| 20260506045009 | 19 | 215 | 6.4 | 17.7 | 0.00 | 0.00 | 0.00 | 69 | 1010.8 |
| 20260506044509 | 19 | 216 | 6.4 | 17.7 | 0.00 | 0.00 | 0.00 | 69 | 1010.9 |
| 20260506044009 | 19 | 211 | 4.8 | 16.1 | 0.00 | 0.00 | 0.00 | 69 | 1010.9 |
| 20260506043509 | 19 | 214 | 4.8 | 20.9 | 0.00 | 0.00 | 0.00 | 69 | 1010.9 |
| 20260506043009 | 19 | 216 | 6.4 | 20.9 | 0.00 | 0.00 | 0.00 | 68 | 1011.0 |
| 20260506042509 | 19 | 211 | 6.4 | 22.5 | 0.00 | 0.00 | 0.00 | 68 | 1010.9 |
| 20260506042009 | 19 | 210 | 6.4 | 22.5 | 0.00 | 0.00 | 0.00 | 67 | 1010.9 |
| 20260506041509 | 19 | 214 | 6.4 | 22.5 | 0.00 | 0.00 | 0.00 | 67 | 1010.9 |
| 20260506041009 | 19 | 221 | 6.4 | 20.9 | 0.00 | 0.00 | 0.00 | 67 | 1010.9 |
| 20260506040509 | 19 | 212 | 6.4 | 16.1 | 0.00 | 0.00 | 0.00 | 67 | 1010.8 |
| 20260506040010 | 19 | 205 | 8.0 | 16.1 | 0.00 | 0.00 | 0.00 | 66 | 1010.8 |
| 20260506035509 | 19 | 211 | 6.4 | 16.1 | 0.00 | 0.00 | 0.00 | 66 | 1010.8 |
| 20260506035009 | 19 | 219 | 6.4 | 24.1 | 0.00 | 0.00 | 0.00 | 66 | 1010.7 |
| 20260506034509 | 19 | 216 | 8.0 | 25.7 | 0.00 | 0.00 | 0.00 | 66 | 1010.8 |
| 20260506034009 | 19 | 212 | 8.0 | 25.7 | 0.00 | 0.00 | 0.00 | 65 | 1010.7 |
| 20260506033510 | 20 | 212 | 8.0 | 19.3 | 0.00 | 0.00 | 0.00 | 65 | 1010.8 |
| 20260506033009 | 20 | 213 | 8.0 | 17.7 | 0.00 | 0.00 | 0.00 | 65 | 1010.8 |
| 20260506032509 | 20 | 209 | 9.7 | 19.3 | 0.00 | 0.00 | 0.00 | 64 | 1010.8 |
| 20260506030509 | 20 | 215 | 8.0 | 24.1 | 0.00 | 0.00 | 0.00 | 63 | 1010.9 |
| 20260506030010 | 20 | 220 | 8.0 | 24.1 | 0.00 | 0.00 | 0.00 | 62 | 1010.7 |
| 20260506025509 | 20 | 207 | 8.0 | 24.1 | 0.00 | 0.00 | 0.00 | 62 | 1010.8 |
| 20260506025009 | 20 | 214 | 8.0 | 24.1 | 0.00 | 0.00 | 0.00 | 62 | 1010.9 |
| 20260506024009 | 20 | 211 | 9.7 | 27.4 | 0.00 | 0.00 | 0.00 | 60 | 1010.9 |
| 20260506023509 | 20 | 206 | 9.7 | 27.4 | 0.00 | 0.00 | 0.00 | 60 | 1010.8 |
| 20260506023009 | 20 | 206 | 8.0 | 24.1 | 0.00 | 0.00 | 0.00 | 60 | 1010.9 |
| 20260506022509 | 20 | 207 | 8.0 | 27.4 | 0.00 | 0.00 | 0.00 | 59 | 1010.9 |
| 20260506022009 | 20 | 212 | 9.7 | 27.4 | 0.00 | 0.00 | 0.00 | 59 | 1010.9 |
| 20260506021509 | 21 | 214 | 9.7 | 20.9 | 0.00 | 0.00 | 0.00 | 58 | 1011.0 |
| 20260506020509 | 21 | 209 | 8.0 | 22.5 | 0.00 | 0.00 | 0.00 | 57 | 1010.8 |
| 20260506015509 | 21 | 211 | 6.4 | 17.7 | 0.00 | 0.00 | 0.00 | 56 | 1010.8 |
| 20260506015009 | 21 | 210 | 6.4 | 19.3 | 0.00 | 0.00 | 0.00 | 56 | 1010.7 |
| 20260506014509 | 21 | 216 | 6.4 | 19.3 | 0.00 | 0.00 | 0.00 | 55 | 1010.6 |
| 20260506014009 | 21 | 216 | 6.4 | 17.7 | 0.00 | 0.00 | 0.00 | 55 | 1010.6 |
| 20260506013509 | 21 | 207 | 6.4 | 19.3 | 0.00 | 0.00 | 0.00 | 55 | 1010.6 |
| 20260506013010 | 21 | 203 | 6.4 | 20.9 | 0.00 | 0.00 | 0.00 | 55 | 1010.6 |
| 20260506012509 | 21 | 198 | 6.4 | 20.9 | 0.00 | 0.00 | 0.00 | 55 | 1010.5 |
| 20260506012009 | 21 | 206 | 6.4 | 20.9 | 0.00 | 0.00 | 0.00 | 55 | 1010.4 |
| 20260506010509 | 21 | 210 | 8.0 | 19.3 | 0.00 | 0.00 | 0.00 | 55 | 1010.4 |
| 20260506010009 | 21 | 201 | 8.0 | 24.1 | 0.00 | 0.00 | 0.00 | 54 | 1010.3 |
| 20260506005509 | 21 | 197 | 8.0 | 24.1 | 0.00 | 0.00 | 0.00 | 54 | 1010.2 |
| 20260506005009 | 21 | 201 | 8.0 | 19.3 | 0.00 | 0.00 | 0.00 | 54 | 1010.3 |
| 20260506004008 | 22 | 202 | 6.4 | 19.3 | 0.00 | 0.00 | 0.00 | 54 | 1010.3 |
| 20260506003509 | 22 | 208 | 6.4 | 20.9 | 0.00 | 0.00 | 0.00 | 53 | 1010.2 |
| 20260506003009 | 22 | 218 | 8.0 | 20.9 | 0.00 | 0.00 | 0.00 | 53 | 1010.1 |
| 20260506002509 | 22 | 222 | 9.7 | 24.1 | 0.00 | 0.00 | 0.00 | 53 | 1010.0 |
| 20260506002009 | 22 | 218 | 9.7 | 24.1 | 0.00 | 0.00 | 0.00 | 52 | 1010.0 |
| 20260506001509 | 22 | 216 | 9.7 | 24.1 | 0.00 | 0.00 | 0.00 | 51 | 1009.8 |
| 20260506001009 | 22 | 211 | 8.0 | 24.1 | 0.00 | 0.00 | 0.00 | 50 | 1009.9 |
| 20260506000509 | 23 | 210 | 8.0 | 24.1 | 0.00 | 0.00 | 0.00 | 49 | 1009.8 |
| 20260506000009 | 23 | 206 | 9.7 | 20.9 | 0.00 | 0.00 | 0.00 | 48 | 1009.8 |
| 20260505235509 | 23 | 207 | 8.0 | 20.9 | 0.00 | 0.00 | 0.00 | 46 | 1009.7 |
| 20260505235009 | 23 | 215 | 6.4 | 20.9 | 0.00 | 0.00 | 0.00 | 45 | 1009.7 |
| 20260505234509 | 23 | 215 | 6.4 | 19.3 | 0.00 | 0.00 | 0.00 | 44 | 1009.7 |
| 20260505233509 | 24 | 215 | 8.0 | 17.7 | 0.00 | 0.00 | 0.00 | 42 | 1009.4 |
| 20260505233009 | 25 | 219 | 6.4 | 17.7 | 0.00 | 0.00 | 0.00 | 41 | 1009.4 |
| 20260505232509 | 25 | 211 | 6.4 | 17.7 | 0.00 | 0.00 | 0.00 | 40 | 1009.2 |
| 20260505232009 | 25 | 208 | 8.0 | 20.9 | 0.00 | 0.00 | 0.00 | 38 | 1009.3 |
| 20260505231009 | 25 | 218 | 12.9 | 29.0 | 0.00 | 0.00 | 0.00 | 36 | 1009.1 |
| 20260505230509 | 25 | 213 | 9.7 | 27.4 | 0.00 | 0.00 | 0.00 | 36 | 1009.0 |
| 20260505230009 | 26 | 212 | 9.7 | 29.0 | 0.00 | 0.00 | 0.00 | 36 | 1009.1 |
| 20260505225509 | 26 | 215 | 8.0 | 29.0 | 0.00 | 0.00 | 0.00 | 36 | 1009.1 |
| 20260505225009 | 26 | 225 | 9.7 | 27.4 | 0.00 | 0.00 | 0.00 | 36 | 1009.0 |
| 20260505224509 | 26 | 222 | 11.3 | 27.4 | 0.00 | 0.00 | 0.00 | 35 | 1009.1 |
| 20260505223509 | 26 | 218 | 11.3 | 29.0 | 0.00 | 0.00 | 0.00 | 35 | 1008.9 |
| 20260505223009 | 27 | 218 | 9.7 | 27.4 | 0.00 | 0.00 | 0.00 | 35 | 1008.9 |
| 20260505222509 | 27 | 211 | 11.3 | 25.7 | 0.00 | 0.00 | 0.00 | 35 | 1009.0 |
| 20260505222009 | 27 | 215 | 11.3 | 25.7 | 0.00 | 0.00 | 0.00 | 34 | 1008.9 |
| 20260505221509 | 27 | 221 | 9.7 | 24.1 | 0.00 | 0.00 | 0.00 | 33 | 1008.7 |
| 20260505221009 | 27 | 222 | 11.3 | 27.4 | 0.00 | 0.00 | 0.00 | 33 | 1009.0 |
| 20260505220509 | 27 | 222 | 11.3 | 35.4 | 0.00 | 0.00 | 0.00 | 32 | 1008.9 |
| 20260505220009 | 27 | 223 | 11.3 | 35.4 | 0.00 | 0.00 | 0.00 | 32 | 1008.8 |
| 20260505215509 | 27 | 224 | 12.9 | 41.8 | 0.00 | 0.00 | 0.00 | 33 | 1008.8 |
| 20260505215009 | 27 | 222 | 12.9 | 41.8 | 0.00 | 0.00 | 0.00 | 31 | 1008.7 |
| 20260505214509 | 27 | 216 | 9.7 | 25.7 | 0.00 | 0.00 | 0.00 | 31 | 1008.8 |
| 20260505214009 | 28 | 217 | 11.3 | 33.8 | 0.00 | 0.00 | 0.00 | 30 | 1008.7 |
| 20260505213509 | 28 | 225 | 12.9 | 33.8 | 0.00 | 0.00 | 0.00 | 31 | 1008.6 |
| 20260505212509 | 28 | 225 | 8.0 | 25.7 | 0.00 | 0.00 | 0.00 | 29 | 1008.6 |
| 20260505212009 | 28 | 224 | 8.0 | 24.1 | 0.00 | 0.00 | 0.00 | 29 | 1008.5 |
| 20260505211009 | 28 | 221 | 11.3 | 32.2 | 0.00 | 0.00 | 0.00 | 30 | 1008.3 |
| 20260505210509 | 28 | 220 | 11.3 | 32.2 | 0.00 | 0.00 | 0.00 | 30 | 1008.3 |
| 20260505210009 | 28 | 227 | 9.7 | 22.5 | 0.00 | 0.00 | 0.00 | 29 | 1008.2 |
| 20260505205509 | 28 | 227 | 9.7 | 27.4 | 0.00 | 0.00 | 0.00 | 31 | 1008.3 |
| 20260505205009 | 28 | 215 | 11.3 | 30.6 | 0.00 | 0.00 | 0.00 | 30 | 1008.2 |
| 20260505204509 | 28 | 211 | 9.7 | 30.6 | 0.00 | 0.00 | 0.00 | 30 | 1008.2 |
| 20260505204009 | 28 | 217 | 9.7 | 25.7 | 0.00 | 0.00 | 0.00 | 30 | 1008.2 |
| 20260505203508 | 28 | 215 | 11.3 | 30.6 | 0.00 | 0.00 | 0.00 | 30 | 1008.3 |
| 20260505203010 | 28 | 216 | 11.3 | 30.6 | 0.00 | 0.00 | 0.00 | 30 | 1008.2 |
| 20260505202509 | 28 | 219 | 11.3 | 25.7 | 0.00 | 0.00 | 0.00 | 30 | 1008.3 |
| 20260505202009 | 28 | 217 | 12.9 | 33.8 | 0.00 | 0.00 | 0.00 | 31 | 1008.3 |
| 20260505201509 | 28 | 216 | 11.3 | 33.8 | 0.00 | 0.00 | 0.00 | 32 | 1008.1 |
| 20260505201009 | 28 | 223 | 11.3 | 37.0 | 0.00 | 0.00 | 0.00 | 31 | 1008.5 |
| 20260505200510 | 28 | 221 | 14.5 | 37.0 | 0.00 | 0.00 | 0.00 | 31 | 1008.4 |
| 20260505195508 | 28 | 224 | 14.5 | 37.0 | 0.00 | 0.00 | 0.00 | 31 | 1008.3 |
| 20260505195009 | 28 | 221 | 9.7 | 37.0 | 0.00 | 0.00 | 0.00 | 32 | 1008.5 |
| 20260505194510 | 28 | 223 | 9.7 | 24.1 | 0.00 | 0.00 | 0.00 | 31 | 1008.6 |
| 20260505193509 | 28 | 228 | 12.9 | 33.8 | 0.00 | 0.00 | 0.00 | 33 | 1008.7 |
| 20260505192509 | 28 | 226 | 11.3 | 30.6 | 0.00 | 0.00 | 0.00 | 30 | 1008.8 |
| 20260505191509 | 28 | 219 | 14.5 | 37.0 | 0.00 | 0.00 | 0.00 | 32 | 1008.9 |
| 20260505191009 | 28 | 214 | 12.9 | 37.0 | 0.00 | 0.00 | 0.00 | 32 | 1008.9 |
| 20260505190509 | 28 | 219 | 11.3 | 27.4 | 0.00 | 0.00 | 0.00 | 32 | 1009.0 |
| 20260505190009 | 28 | 217 | 11.3 | 25.7 | 0.00 | 0.00 | 0.00 | 32 | 1009.0 |
| 20260505185509 | 28 | 219 | 9.7 | 20.9 | 0.00 | 0.00 | 0.00 | 32 | 1009.2 |
| 20260505185009 | 28 | 230 | 9.7 | 32.2 | 0.00 | 0.00 | 0.00 | 32 | 1009.2 |
| 20260505184509 | 28 | 225 | 9.7 | 32.2 | 0.00 | 0.00 | 0.00 | 31 | 1009.1 |